Regional Weather Roundup
Issued by NWS Grand Forks, ND

Home | Current Version | Previous Version | Graphics & Text | Print | Product List | Glossary On
Versions: 1 2 3 4 5 6 7 8 9 10 11 12 13 14 15 16 17 18 19 20 21 22 23 24 25 26 27 28 29 30 31 32 33 34 35 36 37 38 39 40 41 42 43 44 45 46 47 48 49 50
000
ASUS43 KFGF 221231
RWRFGF
PRAIRIE TO PINES  WEATHER ROUNDUP
NATIONAL WEATHER SERVICE EASTERN NORTH DAKOTA/GRAND FORKS ND
600 AM CST THU FEB 22 2018

 **SATELLITE DATA USED TO AUGMENT SKY COVER AT AUTOMATED STATIONS**
 *****  WEATHER ACROSS EASTERN NORTH DAKOTA  *****

CITY           SKY/WX    TMP DP  RH WIND       PRES   REMARKS
GRAND FORKS    FAIR      -2  -7  79 S12       30.44F WCI -20
6HR MIN TEMP:  -6; 6HR MAX TEMP:   0;

GRAND FRKS AFB CLEAR     -6 -11  78 S9        30.43F WCI -23
GRAND FRKS NWS   N/A     -1  -4  88 SE12      30.42F WCI -19
DEVILS LAKE    FAIR      -8 -12  83 SE7       30.33F WCI -23
6HR MIN TEMP: -10; 6HR MAX TEMP:  -4;

FARGO          FAIR       6  -1  73 S14       30.46F WCI -11
WAHPETON ARPT  FAIR       5   0  78 S13       30.48R WCI -12
$$

 ***** WEATHER ACROSS CENTRAL AND WESTERN NORTH DAKOTA  *****

CITY           SKY/WX    TMP DP  RH WIND       PRES   REMARKS
BISMARCK       FAIR     -10 -14  82 E3        30.32R
6HR MIN TEMP: -10; 6HR MAX TEMP:   0;

MINOT          FAIR      -4 -10  75 SE3       30.23S
6HR MIN TEMP:  -4; 6HR MAX TEMP:   1;

JAMESTOWN      FAIR      -1  -5  82 S10       30.34S WCI -17
6HR MIN TEMP:  -5; 6HR MAX TEMP:   0;

MINOT AFB      FAIR     -13 -18  78 SE5       30.23S WCI -25
GARRISON         N/A    -13 -19  75 CALM      30.24F
WILLISTON      FAIR     -10 -15  78 SW3       30.22S
6HR MIN TEMP: -13; 6HR MAX TEMP:   3;

DICKINSON      FAIR      -6 -12  75 S3        30.14F
6HR MIN TEMP:  -8; 6HR MAX TEMP:   1;

HETTINGER      FAIR     -23 -28  78 CALM      30.18F
6HR MIN TEMP: -24; 6HR MAX TEMP:  -6;

$$

 *****  OTHER AIRPORT OBSERVATIONS IN OUR AREA  *****

CITY           SKY/WX    TMP DP  RH WIND       PRES   REMARKS
WALHALLA       FAIR      -6  -6 100 SE5       30.39S WCI -17
GRAFTON AIRPOR FAIR      -8 -11  84 SE7       30.46S WCI -22
VALLEY CITY AR FAIR      -2  -6  84 S10       30.39S WCI -19
CANDO          FAIR     -13 -17  84 SE9       30.33F WCI -31
CAVALIER APRT    N/A     -6  -9  84 SE5       30.41F WCI -17
GWINNER          N/A     -4  -9  77 CALM      30.41S
SHEYENNE NWR     N/A     -4  -9  77 SE7       29.95S WCI -18
ROLLA          FAIR      -6 -11  77 SW10      30.25F WCI -23
 ***** THE ABOVE OBSERVATIONS ARE NON NWS ARE NOT QUALITY
       CONTROLLED AND MAY MIS-REPORT RAIN FOR SNOW...
$$

  *****  WEATHER ACROSS NORTHERN MINNESOTA  *****

CITY           SKY/WX    TMP DP  RH WIND       PRES   REMARKS
FLAG ISLAND    FAIR     -11 -17  77 SE5       30.47R WCI -23
WARROAD        FAIR      -8 -11  84 CALM      30.46S
ROSEAU         FAIR      -4  -9  77 S8        30.46R WCI -19
HALLOCK        FAIR      -6  -9  84 SE7       30.44S WCI -20
THF RVR FALLS  FAIR      -6 -10  83 SE9       30.46F WCI -23
6HR MIN TEMP:  -6; 6HR MAX TEMP:  -1;

BAUDETTE       FAIR      -9 -13  83 E6        30.46F WCI -22
6HR MIN TEMP: -13; 6HR MAX TEMP:  -3;

WASKISH        FAIR      -2  -8  78 SE6       30.48F WCI -14
CROOKSTON      FAIR      -2  -9  71 SE10      30.46F WCI -19
STEPHEN NDAWN    N/A     -6 -11  77 SE9         N/A  WCI -22
GREENBUSH NDAW   N/A     -6 -11  77 S8          N/A  WCI -21
$$
  *****  WEATHER ACROSS CENTRAL AND WEST MINNESOTA  *****

CITY           SKY/WX    TMP DP  RH WIND       PRES   REMARKS
FOSSTON        FAIR       0  -6  78 SE7       30.45F WCI -13
BEMIDJI        FAIR      -9 -13  85 SE3       30.49R
6HR MIN TEMP: -14; 6HR MAX TEMP:   1;

PARK RAPIDS    FAIR      -4  -9  79 SE8       30.49S WCI -19
6HR MIN TEMP: -18; 6HR MAX TEMP:  -4;

ELBOW LAKE     FAIR       6  -1  74 SE13      30.47F WCI -10
6HR MIN TEMP:  -1; 6HR MAX TEMP:   6;

WADENA         FAIR     -11 -15  84 E3        30.50F
DETROIT LAKES  FAIR       3   0  85 SE6       30.47R WCI  -8
MOORHEAD       FAIR       7  -2  66 S15       30.46F WCI -11
FERGUS FALLS   FAIR       9   1  72 SE13      30.47F WCI  -7
MORRIS MN      FAIR       3  -2  78 SE10      30.49S WCI -12
STAPLES        FAIR      -9 -15  77 CALM      30.53S
$$
  *****  WEATHER ELSEWHERE ACROSS MINNESOTA  *****

CITY           SKY/WX    TMP DP  RH WIND       PRES   REMARKS
DULUTH         FAIR      -2  -8  76 CALM      30.56R
6HR MIN TEMP:  -7; 6HR MAX TEMP:   8;

INTRNTL FALLS  FAIR     -18 -23  77 SE5       30.52R WCI -31
6HR MIN TEMP: -21; 6HR MAX TEMP:  -1;

ELY            FAIR     -13 -18  77 CALM      30.55S
CLOQUET        FAIR      -4  -9  77 CALM      30.57R
WHEATON        FAIR       3  -2  78 SE9       30.50R WCI -11
BRAINERD       FAIR      -8 -14  74 CALM      30.55S
6HR MIN TEMP:  -9; 6HR MAX TEMP:  -2;

HIBBING        FAIR     -16 -21  78 CALM      30.54S
6HR MIN TEMP: -20; 6HR MAX TEMP: -12;

ALEXANDRIA     FAIR       2  -2  83 SE7       30.51S WCI -11
6HR MIN TEMP:  -2; 6HR MAX TEMP:   3;

SAINT CLOUD    MOCLDY    -6  -8  91 CALM      30.56F
6HR MIN TEMP:  -9; 6HR MAX TEMP:  -3;

MINNEAPOLIS    CLOUDY    11   6  81 E3        30.61R
6HR MIN TEMP:   7; 6HR MAX TEMP:  12;

$$

  *****  WEATHER ACROSS SOUTH DAKOTA  *****

CITY           SKY/WX    TMP DP  RH WIND       PRES   REMARKS
SIOUX FALLS    CLOUDY    16  11  80 E3        30.45F
6HR MIN TEMP:   7; 6HR MAX TEMP:  16;

BROOKINGS      CLOUDY     9   5  84 SE7       30.43F WCI  -2
WATERTOWN      FAIR       8   4  83 S13       30.40F WCI  -8
6HR MIN TEMP:   0; 6HR MAX TEMP:   8;

HURON          CLOUDY    13   8  81 SE8       30.41F WCI   2
6HR MIN TEMP:   3; 6HR MAX TEMP:  13;

SISSETON         N/A      0  -5  79 S12       30.46R WCI -17
ABERDEEN       FAIR       3  -1  83 S8        30.39F WCI -10
6HR MIN TEMP:   2; 6HR MAX TEMP:  10;

MITCHELL       CLOUDY    17  11  77 SE12      30.42F WCI   4
PIERRE         FAIR       5   1  83 SE13      30.29F WCI -12
6HR MIN TEMP:   2; 6HR MAX TEMP:  12;

MOBRIDGE       FAIR      -7 -12  79 N5        30.26F WCI -18
RAPID CITY     FAIR      -5  -8  87 N7        30.11F WCI -19
6HR MIN TEMP:  -5; 6HR MAX TEMP:   9;

$$

  *****  SOME WEATHER IN NEARBY STATES *****

CITY           SKY/WX    TMP DP  RH WIND       PRES   REMARKS
GLASGOW MT     FAIR     -13 -17  82 SE5       30.17R WCI -25
6HR MIN TEMP: -17; 6HR MAX TEMP:  -8;

GREAT FALLS MT FAIR       5  -3  69 SE5       30.05S WCI  -4
6HR MIN TEMP:  -1; 6HR MAX TEMP:   9;

CHEYENNE WY    FAIR      10   6  84 W9        29.95S WCI  -3
6HR MIN TEMP:   7; 6HR MAX TEMP:  12;

SCOTTSBLUFF NE CLOUDY     5   3  91 CALM      30.11R
6HR MIN TEMP:   4; 6HR MAX TEMP:  12;

OMAHA NE       LGT SNOW  23  20  88 NE6       30.44F FOG     WCI  16
6HR MIN TEMP:  22; 6HR MAX TEMP:  24; 6HR PCP:  0.04;

DES MOINES IA  FLURRIES  25  17  72 NE8       30.49R WCI  16
6HR MIN TEMP:  24; 6HR MAX TEMP:  26; 6HR PCP: TRACE;

DAVENPORT IA   CLOUDY    28  19  69 NE13      30.54R WCI  17
6HR MIN TEMP:  26; 6HR MAX TEMP:  28;

CHICAGO IL     CLOUDY    33  26  75 NE13      30.54R WCI  24
6HR MIN TEMP:  29; 6HR MAX TEMP:  33;

EAU CLAIRE WI  FAIR       4   1  88 NE3       30.64R
6HR MIN TEMP:  -1; 6HR MAX TEMP:   5;

LA CROSSE WI   CLOUDY    21  16  81 CALM      30.62S
6HR MIN TEMP:  18; 6HR MAX TEMP:  21;

$$

  *****  SOME NATIONAL WEATHER *****

CITY           SKY/WX    TMP DP  RH WIND       PRES   REMARKS
LA GUARDIA NY  CLOUDY    46  36  68 NE10      30.55S
6HR MIN TEMP:  45; 6HR MAX TEMP:  57; 6HR PCP: TRACE;

RALEIGH NC     CLOUDY    65  64  97 SW10      30.45R
6HR MIN TEMP:  62; 6HR MAX TEMP:  66;

ATLANTA GA     MOCLDY    63  63 100 SE5       30.42R
6HR MIN TEMP:  63; 6HR MAX TEMP:  67;

NEW ORLEANS LA FAIR      71  71 100 SE7       30.26R
6HR MIN TEMP:  71; 6HR MAX TEMP:  74;

OKLAHOMA CITY  FRZ DRZL  28  27  96 N5        30.30R FOG     WCI  23
6HR MIN TEMP:  25; 6HR MAX TEMP:  28; 6HR PCP: TRACE;

ALBUQUERQUE NM CLOUDY    32  21  64 N10       29.99S WCI  24
6HR MIN TEMP:  32; 6HR MAX TEMP:  38;

SALT LAKE CITY CLOUDY    23  15  71 S6        29.99F WCI  16
6HR MIN TEMP:  19; 6HR M



USA.gov is the U.S. government's official web portal to all federal, state and local government web resources and services.